EW2887 Weather Reports


Display with metric or nautical units.
time (UTC)temp
F
wind
direction
speed
MPH
gust
MPH
rain 1hr
in
rain 24hr
in
rain mn
in
humidity
%
barometer
mb
20260505124524 50 347 14.0 23.0 0.00 0.00 0.00 55 1002.3
20260505123019 50 347 14.0 21.0 0.00 0.00 0.00 55 1002.1
20260505121515 51 360 14.0 23.0 0.00 0.00 0.00 54 1001.8
20260505120014 52 348 9.0 17.0 0.00 0.00 0.00 55 1001.4
20260505114510 53 333 17.0 23.0 0.00 0.00 0.00 55 1001.2
20260505113007 53 342 8.0 19.0 0.00 0.00 0.00 55 1001.3
20260505111511 53 355 14.0 21.0 0.00 0.00 0.00 55 1001.1
20260505101550 57 334 19.0 26.0 0.00 0.00 0.00 56 1000.4
20260505100048 58 300 19.0 29.0 0.00 0.00 0.00 52 1000.4
20260505094542 61 315 17.0 28.0 0.00 0.00 0.00 43 999.9
20260505093037 64 324 14.0 26.0 0.00 0.00 0.00 30 999.3
20260505091532 67 296 16.0 28.0 0.00 0.00 0.00 25 998.7
20260505090031 67 299 11.0 17.0 0.00 0.00 0.00 26 998.4
20260505084527 67 269 13.0 18.0 0.00 0.00 0.00 26 998.0
20260505083022 68 360 11.0 16.0 0.00 0.00 0.00 25 997.5
20260505081529 69 249 14.0 20.0 0.00 0.00 0.00 25 997.4
20260505080020 69 243 13.0 20.0 0.00 0.00 0.00 25 997.6
20260505074516 70 246 14.0 21.0 0.00 0.00 0.00 25 997.9
20260505073015 69 257 15.0 24.0 0.00 0.00 0.00 25 997.8
20260505071531 70 238 16.0 22.0 0.00 0.00 0.00 24 997.9
20260505070014 70 250 16.0 25.0 0.00 0.00 0.00 24 997.8
20260505064520 69 247 16.0 24.0 0.00 0.00 0.00 24 997.7
20260505063013 70 215 16.0 22.0 0.00 0.00 0.00 24 997.8
20260505061510 70 219 16.0 23.0 0.00 0.00 0.00 24 998.0
20260505060004 70 219 17.0 24.0 0.00 0.00 0.00 23 997.9
20260505054502 71 219 16.0 24.0 0.00 0.00 0.00 23 997.9
20260505053106 71 242 18.0 25.0 0.00 0.00 0.00 23 998.1
20260505051558 71 242 18.0 25.0 0.00 0.00 0.00 23 998.1
20260505041554 72 234 21.0 29.0 0.00 0.00 0.00 23 998.1
20260505040052 73 234 21.0 30.0 0.00 0.00 0.00 22 998.2
20260505034552 72 236 17.0 24.0 0.00 0.00 0.00 22 998.3
20260505033052 74 360 20.0 27.0 0.00 0.00 0.00 20 998.2
20260505031550 73 238 18.0 26.0 0.00 0.00 0.00 19 998.2
20260505030050 74 237 19.0 26.0 0.00 0.00 0.00 18 997.9
20260505024549 75 235 17.0 23.0 0.00 0.00 0.00 17 997.9
20260505023055 75 239 15.0 22.0 0.00 0.00 0.00 16 997.8
20260505021548 76 213 16.0 22.0 0.00 0.00 0.00 16 997.7
20260505020047 77 360 16.0 24.0 0.00 0.00 0.00 15 997.6
20260505014547 77 236 16.0 22.0 0.00 0.00 0.00 15 997.6
20260505013046 78 229 15.0 23.0 0.00 0.00 0.00 14 997.4
20260505011551 79 222 18.0 26.0 0.00 0.00 0.00 14 997.4
20260505010048 80 241 19.0 25.0 0.00 0.00 0.00 14 997.3
20260505004544 81 220 19.0 30.0 0.00 0.00 0.00 13 997.4
20260505003043 82 270 12.0 19.0 0.00 0.00 0.00 15 997.5
20260505001543 82 270 15.0 27.0 0.00 0.00 0.00 16 997.6
20260505000041 83 248 16.0 28.0 0.00 0.00 0.00 13 997.4
20260504234539 83 360 14.0 22.0 0.00 0.00 0.00 15 997.8
20260504233042 83 236 14.0 21.0 0.00 0.00 0.00 20 997.7
20260504231541 83 360 11.0 25.0 0.00 0.00 0.00 20 997.7
20260504230037 84 236 21.0 27.0 0.00 0.00 0.00 19 997.8
20260504224535 84 241 13.0 24.0 0.00 0.00 0.00 19 997.9
20260504223034 86 277 19.0 28.0 0.00 0.00 0.00 17 998.2
20260504221533 86 240 14.0 29.0 0.00 0.00 0.00 16 998.4
20260504220031 86 281 21.0 29.0 0.00 0.00 0.00 15 998.6
20260504214530 86 248 19.0 33.0 0.00 0.00 0.00 13 998.8
20260504213027 86 233 22.0 31.0 0.00 0.00 0.00 16 999.0
20260504211524 86 360 18.0 29.0 0.00 0.00 0.00 17 999.2
20260504210024 86 248 24.0 31.0 0.00 0.00 0.00 17 999.6
20260504204520 85 360 17.0 30.0 0.00 0.00 0.00 18 999.9
20260504203017 86 260 15.0 29.0 0.00 0.00 0.00 17 1000.0
20260504201514 85 271 15.0 29.0 0.00 0.00 0.00 19 1000.2
20260504200023 85 261 17.0 30.0 0.00 0.00 0.00 19 1000.4
20260504194510 85 271 12.0 22.0 0.00 0.00 0.00 20 1000.7
20260504193007 85 275 13.0 24.0 0.00 0.00 0.00 19 1001.0
20260504191517 85 274 16.0 24.0 0.00 0.00 0.00 19 1001.3
20260504190011 85 236 15.0 24.0 0.00 0.00 0.00 19 1001.4
20260504184511 85 267 10.0 22.0 0.00 0.00 0.00 19 1001.7
20260504183109 85 290 11.0 19.0 0.00 0.00 0.00 20 1001.9
20260504181558 85 262 15.0 26.0 0.00 0.00 0.00 20 1002.4
20260504180056 84 261 13.0 24.0 0.00 0.00 0.00 19 1002.6
20260504174600 85 281 14.0 22.0 0.00 0.00 0.00 20 1002.7
20260504173056 84 311 16.0 27.0 0.00 0.00 0.00 21 1003.1
20260504171549 84 275 17.0 29.0 0.00 0.00 0.00 21 1003.4